Location: Cherry Springs State Park
(41.6616°N, 77.8240°W)
Time: 03:59:33
(UTC-04:00)

Amateur Radio Satellites - All Passes

Search period start: 22 October 2014 03:29
Search period end: 23 October 2014 03:29
Location: Cherry Springs State Park, 41.6616°N, 77.8240°W

Satellite Date Start Highest point End Downlink Frequencies (MHz)
Time Altitude Azimuth
Sapphire 22 Oct 03:35:19 03:36:35 11° 101° (ESE) 03:37:50 437.095 MHz 1200 baud AX-25 AFSK
Oscar 16 22 Oct 03:35:37 03:40:21 39° 291° (WNW) 03:45:04 437.025 USB, Beacon 2401.1428
Uribyol 2 22 Oct 03:49:02 03:54:14 69° 287° (WNW) 03:59:23 436.500 FM
ITAMSAT 1 22 Oct 03:54:14 03:59:26 66° 287° (WNW) 04:04:35 435.822 SSB
Gurwin Techsat 1B 22 Oct 03:55:07 04:00:26 69° 102° (ESE) 04:05:43 435.225 FM
PCSat 22 Oct 03:55:23 03:59:10 20° 106° (ESE) 04:02:58 145.825 MHz
AO-Echo 22 Oct 03:56:13 04:01:17 48° 289° (WNW) 04:06:22 ?
RS-15 22 Oct 03:59:10 04:06:55 21° 359° (N) 04:14:46 29.354 - 29.394 USB, Beacon 29.352 USB
TMSAT-1 22 Oct 04:08:28 04:13:46 68° 102° (ESE) 04:19:02 436.925 FM
Oscar 19 22 Oct 04:31:23 04:33:53 14° 301° (WNW) 04:36:23 437.125 CW, 437.150 USB
AO-7 22 Oct 04:32:56 04:40:00 30° 95° (E) 04:47:02 29.400 - 29.500 MHz
OPAL 22 Oct 04:36:14 04:40:45 32° 65° (ENE) 04:45:15 ?
JAS-1B 22 Oct 04:37:33 04:42:39 26° 296° (WNW) 04:48:24 435.800 - 435.900 CW/SSB
AO-27 22 Oct 04:39:42 04:43:59 26° 295° (WNW) 04:48:15 436.795 MHz FM
Sapphire 22 Oct 05:13:42 05:19:06 85° 118° (ESE) 05:24:34 437.095 MHz 1200 baud AX-25 AFSK
Gurwin Techsat 1B 22 Oct 05:36:33 05:39:48 17° 299° (WNW) 05:43:03 435.225 FM
PCSat 22 Oct 05:36:45 05:42:05 59° 303° (WNW) 05:47:28 145.825 MHz
Uosat F 22 Oct 05:38:11 05:43:14 71° 103° (ESE) 05:48:16 435.120 FM
TMSAT-1 22 Oct 05:49:49 05:53:07 17° 299° (WNW) 05:56:23 436.925 FM
JAS-2 22 Oct 06:09:45 06:17:07 46° 97° (E) 06:24:32 435.800 - 435.900 CW/SSB, 435.910 FM
RS-15 22 Oct 06:14:13 06:24:01 34° 34° (NNE) 06:34:05 29.354 - 29.394 USB, Beacon 29.352 USB
OPAL 22 Oct 06:14:57 06:19:34 32° 261° (W) 06:24:09 ?
STRAND 1 22 Oct 06:15:49 06:20:07 28° 66° (ENE) 06:24:26 ?
AO-7 22 Oct 06:25:04 06:33:13 62° 294° (WNW) 06:41:22 29.400 - 29.500 MHz
Sapphire 22 Oct 06:59:38 07:03:15 18° 318° (NW) 07:06:53 437.095 MHz 1200 baud AX-25 AFSK
Hamsat 22 Oct 07:14:52 07:19:03 74° 284° (WNW) 07:23:14 145.90 MHz
Uosat F 22 Oct 07:18:35 07:21:25 15° 300° (WNW) 07:24:16 435.120 FM
PCSat 22 Oct 07:24:35 07:26:41 12° 324° (NW) 07:28:48 145.825 MHz
SO-67 22 Oct 07:27:47 07:30:03 16° 93° (E) 07:32:19 435.3500 MHz FM
STRAND 1 22 Oct 07:54:26 07:59:08 37° 263° (W) 08:03:54 ?
JAS-2 22 Oct 07:54:56 08:01:58 42° 294° (WNW) 08:09:10 435.800 - 435.900 CW/SSB, 435.910 FM
Saudisat 1A 22 Oct 08:16:05 08:20:00 33° 115° (ESE) 08:23:58 436.775 MHz
AO-7 22 Oct 08:20:16 08:24:22 15° 315° (NW) 08:28:28 29.400 - 29.500 MHz
RS-15 22 Oct 08:26:37 08:37:50 87° 239° (WSW) 08:49:32 29.354 - 29.394 USB, Beacon 29.352 USB
HO-68 22 Oct 08:35:03 08:37:50 12° 87° (E) 08:40:36 435.675 MHz FM
SO-67 22 Oct 09:00:07 09:03:04 27° 289° (WNW) 09:06:00 435.3500 MHz FM
MaSat-1 22 Oct 09:21:35 09:21:35 10° 50° (NE) 09:21:35 437.345 MHz
Saudisat 1A 22 Oct 09:55:45 09:59:35 29° 313° (NW) 10:03:26 436.775 MHz
UKube-1 22 Oct 10:11:28 10:15:06 25° 96° (E) 10:18:43 145.840 MHz, 145.915 MHz
HO-68 22 Oct 10:19:23 10:26:38 77° 105° (ESE) 10:33:48 435.675 MHz FM
RS-15 22 Oct 10:40:56 10:48:38 22° 260° (W) 10:56:35 29.354 - 29.394 USB, Beacon 29.352 USB
PANSAT 22 Oct 10:43:44 10:44:57 11° 178° (S) 10:46:11 not established
FUNcube-1 22 Oct 10:46:13 10:49:38 23° 94° (E) 10:52:58 145.950 - 145.970 MHz USB
Oscar 11 22 Oct 10:55:09 10:59:28 73° 102° (ESE) 11:03:45 145.825 FM, Beacon 2401.500 USB
MaSat-1 22 Oct 10:55:12 10:57:27 25° 251° (WSW) 10:59:33 437.345 MHz
ZACube-1 22 Oct 11:36:22 11:40:41 86° 103° (ESE) 11:44:53 437.345 MHz
UKube-1 22 Oct 11:47:28 11:51:16 30° 292° (WNW) 11:55:03 145.840 MHz, 145.915 MHz
HO-68 22 Oct 12:08:19 12:13:35 23° 304° (WNW) 12:18:51 435.675 MHz FM
KITSAT 1 22 Oct 12:09:44 12:16:27 30° 106° (ESE) 12:23:10 435.175 FM
Sapphire 22 Oct 12:19:45 12:22:32 14° 38° (NE) 12:25:19 437.095 MHz 1200 baud AX-25 AFSK
FUNcube-1 22 Oct 12:22:17 12:26:02 30° 291° (WNW) 12:29:41 145.950 - 145.970 MHz USB
Oscar 19 22 Oct 12:30:37 12:33:35 16° 61° (ENE) 12:36:33 437.125 CW, 437.150 USB
Oscar 11 22 Oct 12:33:44 12:35:02 11° 299° (WNW) 12:36:21 145.825 FM, Beacon 2401.500 USB
PCSat 22 Oct 12:41:53 12:45:54 20° 44° (NE) 12:49:54 145.825 MHz
Oscar 16 22 Oct 13:13:43 13:18:28 38° 69° (ENE) 13:23:13 437.025 USB, Beacon 2401.1428
ISS 22 Oct 13:13:46 13:15:55 16° 131° (SE) 13:18:04 145.800 FM
SO-50 22 Oct 13:16:10 13:19:44 24° 112° (ESE) 13:23:23 436.795 FM
Uribyol 2 22 Oct 13:29:05 13:33:11 24° 64° (ENE) 13:37:19 436.500 FM
AO-Echo 22 Oct 13:31:34 13:35:39 27° 66° (ENE) 13:39:51 ?
JAS-1B 22 Oct 13:32:59 13:38:45 48° 70° (ENE) 13:44:10 435.800 - 435.900 CW/SSB
ITAMSAT 1 22 Oct 13:34:18 13:38:29 25° 65° (ENE) 13:42:42 435.822 SSB
Gurwin Techsat 1B 22 Oct 13:39:30 13:42:28 15° 60° (ENE) 13:45:27 435.225 FM
TMSAT-1 22 Oct 13:52:39 13:55:31 15° 60° (ENE) 13:58:24 436.925 FM
Sapphire 22 Oct 14:01:32 14:06:59 71° 59° (ENE) 14:12:23 437.095 MHz 1200 baud AX-25 AFSK
KITSAT 1 22 Oct 14:03:18 14:11:18 63° 305° (NW) 14:19:20 435.175 FM
Oscar 19 22 Oct 14:07:11 14:12:20 71° 258° (WSW) 14:17:29 437.125 CW, 437.150 USB
AO-27 22 Oct 14:18:01 14:23:09 63° 72° (ENE) 14:28:19 436.795 MHz FM
PCSat 22 Oct 14:24:27 14:29:52 71° 244° (WSW) 14:35:15 145.825 MHz
ISS 22 Oct 14:48:59 14:52:17 61° 328° (NNW) 14:55:36 145.800 FM
Oscar 16 22 Oct 14:53:36 14:57:53 26° 265° (W) 15:02:11 437.025 USB, Beacon 2401.1428
UOSAT-12 22 Oct 14:54:37 14:58:10 22° 111° (ESE) 15:01:47 437.025 FM, 437.400 FM
SO-50 22 Oct 14:55:48 15:00:03 40° 310° (NW) 15:04:26 436.795 FM
Oscar 10/S400 22 Oct 14:57:15 15:14:43 43° 156° (SSE) 15:42:45 145.825 - 145.975 CW/USB, Beacon 145.810 USB
Uribyol 2 22 Oct 15:07:25 15:12:23 44° 261° (W) 15:17:23 436.500 FM
AO-Echo 22 Oct 15:09:53 15:14:16 34° 264° (W) 15:18:49 ?
ITAMSAT 1 22 Oct 15:12:49 15:17:44 42° 261° (W) 15:22:41 435.822 SSB
Uosat F 22 Oct 15:16:18 15:18:33 13° 59° (ENE) 15:20:49 435.120 FM
Gurwin Techsat 1B 22 Oct 15:16:29 15:21:47 76° 257° (WSW) 15:27:07 435.225 FM
JAS-1B 22 Oct 15:25:04 15:29:42 22° 266° (W) 15:34:07 435.800 - 435.900 CW/SSB
TMSAT-1 22 Oct 15:29:28 15:34:46 78° 257° (WSW) 15:40:06 436.925 FM
AO-7 22 Oct 15:32:06 15:39:42 43° 61° (ENE) 15:47:20 29.400 - 29.500 MHz
Sapphire 22 Oct 15:46:33 15:49:46 16° 256° (WSW) 15:52:59 437.095 MHz 1200 baud AX-25 AFSK
AO-27 22 Oct 15:59:57 16:03:05 16° 269° (W) 16:06:15 436.795 MHz FM
KITSAT 1 22 Oct 16:02:54 16:08:28 20° 330° (NNW) 16:14:04 435.175 FM
JAS-2 22 Oct 16:24:35 16:28:31 18° 56° (NE) 16:32:44 435.800 - 435.900 CW/SSB, 435.910 FM
ISS 22 Oct 16:27:06 16:29:30 18° 347° (NNW) 16:31:55 145.800 FM
UOSAT-12 22 Oct 16:33:34 16:38:01 45° 309° (NW) 16:42:34 437.025 FM, 437.400 FM
Saudisat 1A 22 Oct 16:42:16 16:46:13 31° 48° (NE) 16:50:09 436.775 MHz
Uosat F 22 Oct 16:51:36 16:56:38 83° 256° (WSW) 17:01:42 435.120 FM
AO-7 22 Oct 17:24:36 17:32:24 45° 260° (W) 17:40:16 29.400 - 29.500 MHz
ISS 22 Oct 18:05:02 18:07:10 16° 7° (N) 18:09:18 145.800 FM
KITSAT 1 22 Oct 18:05:41 18:07:53 11° 1° (N) 18:10:04 435.175 FM
JAS-2 22 Oct 18:06:50 18:12:37 79° 257° (WSW) 18:19:15 435.800 - 435.900 CW/SSB, 435.910 FM
Hamsat 22 Oct 18:08:01 18:12:14 79° 76° (ENE) 18:16:27 145.90 MHz
Saudisat 1A 22 Oct 18:21:51 18:25:44 31° 245° (WSW) 18:29:36 436.775 MHz
OPAL 22 Oct 18:23:59 18:28:56 63° 104° (ESE) 18:33:49 ?
HO-68 22 Oct 19:06:09 19:08:31 12° 48° (NE) 19:10:52 435.675 MHz FM
SO-67 22 Oct 19:32:07 19:35:33 85° 260° (W) 19:39:00 435.3500 MHz FM
ISS 22 Oct 19:41:25 19:44:34 37° 27° (NNE) 19:47:42 145.800 FM
JAS-2 22 Oct 19:58:10 19:59:01 10° 278° (W) 19:59:54 435.800 - 435.900 CW/SSB, 435.910 FM
KITSAT 1 22 Oct 20:01:28 20:07:14 21° 31° (NNE) 20:12:57 435.175 FM
OPAL 22 Oct 20:04:12 20:07:18 17° 301° (WNW) 20:10:22 ?
STRAND 1 22 Oct 20:04:15 20:09:26 74° 103° (ESE) 20:14:34 ?
HO-68 22 Oct 20:47:46 20:54:44 59° 68° (ENE) 21:01:45 435.675 MHz FM
RS-15 22 Oct 20:48:26 20:50:47 11° 94° (E) 20:53:07 29.354 - 29.394 USB, Beacon 29.352 USB
UKube-1 22 Oct 21:07:22 21:10:49 24° 66° (ENE) 21:14:18 145.840 MHz, 145.915 MHz
ISS 22 Oct 21:18:15 21:21:12 29° 224° (SW) 21:24:09 145.800 FM
FUNcube-1 22 Oct 21:42:46 21:46:16 22° 67° (ENE) 21:49:45 145.950 - 145.970 MHz USB
STRAND 1 22 Oct 21:45:08 21:47:59 15° 300° (WNW) 21:50:49 ?
SO-50 22 Oct 21:46:40 21:50:50 28° 46° (NE) 21:55:01 436.795 FM
Oscar 11 22 Oct 21:50:09 21:54:23 57° 74° (ENE) 21:58:39 145.825 FM, Beacon 2401.500 USB
KITSAT 1 22 Oct 21:56:13 22:04:17 67° 55° (NE) 22:12:18 435.175 FM
ZACube-1 22 Oct 22:32:23 22:36:58 71° 75° (ENE) 22:41:31 437.345 MHz
HO-68 22 Oct 22:36:57 22:42:48 27° 266° (W) 22:48:43 435.675 MHz FM
UKube-1 22 Oct 22:42:57 22:46:51 32° 263° (W) 22:50:46 145.840 MHz, 145.915 MHz
RS-15 22 Oct 22:49:55 23:00:39 62° 114° (ESE) 23:11:18 29.354 - 29.394 USB, Beacon 29.352 USB
FUNcube-1 22 Oct 23:18:07 23:22:24 38° 262° (W) 23:26:40 145.950 - 145.970 MHz USB
UOSAT-12 22 Oct 23:23:15 23:27:07 24° 44° (NE) 23:30:56 437.025 FM, 437.400 FM
SO-50 22 Oct 23:26:57 23:31:32 42° 244° (WSW) 23:36:07 436.795 FM
Oscar 11 22 Oct 23:29:01 23:30:55 13° 270° (W) 23:32:50 145.825 FM, Beacon 2401.500 USB
KITSAT 1 22 Oct 23:52:32 23:59:02 28° 255° (WSW) 00:05:32 435.175 FM
ZACube-1 23 Oct 00:12:21 00:13:48 11° 271° (W) 00:15:16 437.345 MHz
MaSat-1 23 Oct 00:31:28 00:35:37 56° 113° (ESE) 00:39:24 437.345 MHz
UOSAT-12 23 Oct 01:02:58 01:07:30 48° 243° (WSW) 01:11:57 437.025 FM, 437.400 FM
RS-15 23 Oct 01:03:13 01:13:29 44° 319° (NW) 01:23:49 29.354 - 29.394 USB, Beacon 29.352 USB
JAS-1B 23 Oct 01:17:13 01:20:09 13° 90° (E) 01:23:14 435.800 - 435.900 CW/SSB
Oscar 16 23 Oct 01:27:00 01:29:11 13° 89° (E) 01:31:22 437.025 USB, Beacon 2401.1428
MaSat-1 23 Oct 02:09:17 02:11:32 14° 307° (NW) 02:13:41 437.345 MHz
Oscar 19 23 Oct 02:18:45 02:23:34 40° 98° (E) 02:28:20 437.125 CW, 437.150 USB
AO-27 23 Oct 02:31:38 02:35:40 22° 93° (E) 02:39:40 436.795 MHz FM
Oscar 16 23 Oct 03:03:58 03:09:06 76° 286° (WNW) 03:14:12 437.025 USB, Beacon 2401.1428
JAS-1B 23 Oct 03:04:46 03:11:20 81° 104° (ESE) 03:19:13 435.800 - 435.900 CW/SSB
AO-Echo 23 Oct 03:15:56 03:21:16 76° 103° (ESE) 03:26:35 ?
